Tracking 19212 objects as of 16-Jul-2018
HD Live streaming from Space Station
objects crossing your sky now

FLOCK 3P 4

Track FLOCK 3P 4 now!
10-day predictions
FLOCK 3P 4 is classified as:


NORAD ID: 41965
Int'l Code: 2017-008T
Perigee: 494.8 km
Apogee: 504.2 km
Inclination: 97.4 °
Period: 94.5 minutes
Semi major axis: 6870 km
RCS: Unknown
Launch date: February 15, 2017
Source: United States (US)
Launch site: SRIHARIKOTA (SRI)
aabbcc
Your satellite tracking list
Your tracking list is empty




NASA's NSSDC Master Catalog

Two Line Element Set (TLE):
1 41965U 17008T   18196.44598163 +.00001424 +00000-0 +60895-4 0  9999
2 41965 097.4483 261.1062 0006831 247.5688 112.4826 15.24485774078330
Source of the keplerian elements: AFSPC